map of EDL home
Great Circle Mapper logo
EDL - Airport
Location
City:  Eldoret, Kenya
Name:Eldoret International Airport
ICAO / IATA:HKEL / EDL

Details
Type:Airport (Aerodrome, Airfield)
Use:International (customs port of entry)
Latitude:024'16"N (0.404458)
Longitude:3514'20"E (35.238928)
Datum:WGS 1984
Elevation:6941 ft (2116 m)
Variation:1.2E (WMM2015 magnetic declination)
Runways:1
Longest:11483 × 148 ft (3500 × 45 m), paved

Time
Time Zone:UTC+3
Local Time:

Weather
METAR:HKEL 192100Z 07004KT CAVOK 13/09 Q1025
TAF:HKEL 191630Z 1918/2018 07005KT 9999 FEW019
TEMPO 2000/2006 09005KT FEW018
BECMG 2008/2011 06010KT SCT024
TEMPO 2012/2018 07010KT FEW021CB SCT090

Related Locations
Nearby:
Farthest:NHV: 11779 mi / 18956 km
Nuku Hiva, Marquesas Islands, PF

Find:

   beyond  
but within

Other Information
Maps:
NOTAMs:
Links:
Sources:

  
flag of Kenya   

Sectional Chart

Flight Planning
at skyvector.com

Satellite Image

Google Maps Satellite View

 

Copyright © 2004-2014 Karl L. Swartz. All rights reserved.
The Great Circle Mapper name and logo are trademarks of the Great Circle Mapper.
All other trademarks mentioned herein belong to their respective owners.
Please see credits for attibutions and further copyright information.

  Follow gcmap on Facebook Follow gcmap on Twitter

hCard Microformat

Geo Microformat